Tracking 19720 objects as of 26-Jun-2019
HD Live streaming from Space Station
objects crossing your sky now

BUCCANEER RMM

Track BUCCANEER RMM now!
10-day predictions


NORAD ID: 43014
Int'l Code: 2017-073B
Perigee: 464.4 km
Apogee: 819.4 km
Inclination: 97.7 °
Period: 97.4 minutes
Semi major axis: 7012 km
RCS: Unknown
Launch date: November 18, 2017
Source: United States (US)
Launch site: AIR FORCE WESTERN TEST RANGE (AFWTR)
aabbcc
Your satellite tracking list
Your tracking list is empty




NASA's NSSDC Master Catalog

Two Line Element Set (TLE):
1 43014U 17073B   19176.03322229  .00000607  00000-0  54036-4 0  9992
2 43014  97.7186  96.2869 0253099 139.0322 223.0214 14.78291857 86178
Source of the keplerian elements: AFSPC